Tracking 23581 objects as of 27-Jul-2021
HD Live streaming from Space Station
objects crossing your sky now

COSMOS 2491 DEB

Track COSMOS 2491 DEB now!
10-day predictions


NORAD ID: 44998
Int'l Code: 2013-076T
Perigee: 1,365.6 km
Apogee: 1,492.0 km
Inclination: 82.5 °
Period: 114.3 minutes
Semi major axis: 7799 km
RCS: Unknown
Launch date: December 25, 2013
Source: Commonwealth of Independent States (former USSR) (CIS)
Launch site: PLESETSK MISSILE AND SPACE COMPLEX (PKMTR)

Note: This is SATELLITE DEBRIS
aabbcc
Your satellite tracking list
Your tracking list is empty




NASA's NSSDC Master Catalog

Two Line Element Set (TLE):
1 44998U 13076S   21207.23683868  .00000423  00000-0  23414-2 0  9992
2 44998  82.4695 190.7256 0081014 249.0581 110.1825 12.60314761 71594
Source of the keplerian elements: AFSPC